Satellite: OKEAN-4
Catalog number: 23317
Epoch time:      09203.79965809
Element set:     969
Inclination:      082.5427 deg
RA of node:       301.2539 deg
Eccentricity:    0.0020458
Arg of perigee:   246.1502 deg
Mean anomaly:     113.7563 deg
Mean motion:   14.82709970 rev/day
Decay rate:       2.20e-06 rev/day^2
Epoch rev:           79764
Checksum:              321

Satellite: NOAA-14
Catalog number: 23455
Epoch time:      09203.76929496
Element set:    0699
Inclination:      098.9087 deg
RA of node:       281.3233 deg
Eccentricity:    0.0010488
Arg of perigee:   091.5733 deg
Mean anomaly:     268.6647 deg
Mean motion:   14.13767221 rev/day
Decay rate:       1.69e-06 rev/day^2
Epoch rev:           75095
Checksum:              351

Satellite: NOAA-15
Catalog number: 25338
Epoch time:      09203.93874289
Element set:    0015
Inclination:      098.5844 deg
RA of node:       192.3640 deg
Eccentricity:    0.0009942
Arg of perigee:   318.9699 deg
Mean anomaly:     041.0760 deg
Mean motion:   14.24774969 rev/day
Decay rate:       1.52e-06 rev/day^2
Epoch rev:           58186
Checksum:              346

Satellite: RESURS
Catalog number: 25394
Epoch time:      09203.63931957
Element set:    0279
Inclination:      098.3367 deg
RA of node:       234.1788 deg
Eccentricity:    0.0002287
Arg of perigee:   090.5445 deg
Mean anomaly:     269.5996 deg
Mean motion:   14.24186174 rev/day
Decay rate:       -2.2e-07 rev/day^2
Epoch rev:           57344
Checksum:              335

Satellite: FENGYUN1
Catalog number: 25730
Epoch time:      09203.95787514
Element set:    0858
Inclination:      098.7549 deg
RA of node:       173.0471 deg
Eccentricity:    0.0022473
Arg of perigee:   111.0830 deg
Mean anomaly:     249.2744 deg
Mean motion:   14.07925072 rev/day
Decay rate:       7.02e-06 rev/day^2
Epoch rev:           52535
Checksum:              303

Satellite: OKEAN-0
Catalog number: 25860
Epoch time:      09204.49974483
Element set:     738
Inclination:      097.7880 deg
RA of node:       184.2401 deg
Eccentricity:    0.0001913
Arg of perigee:   069.6460 deg
Mean anomaly:     290.4951 deg
Mean motion:   14.73581103 rev/day
Decay rate:        1.3e-07 rev/day^2
Epoch rev:           53849
Checksum:              313

Satellite: NOAA-16
Catalog number: 26536
Epoch time:      09203.92202890
Element set:    0493
Inclination:      099.1753 deg
RA of node:       208.4530 deg
Eccentricity:    0.0010643
Arg of perigee:   175.6952 deg
Mean anomaly:     184.4302 deg
Mean motion:   14.12528271 rev/day
Decay rate:       3.56e-06 rev/day^2
Epoch rev:           45534
Checksum:              296

Satellite: NOAA-17
Catalog number: 27453
Epoch time:      09203.83369595
Element set:    0496
Inclination:      098.4817 deg
RA of node:       261.6716 deg
Eccentricity:    0.0011988
Arg of perigee:   025.5506 deg
Mean anomaly:     334.6262 deg
Mean motion:   14.24078878 rev/day
Decay rate:       2.13e-06 rev/day^2
Epoch rev:           36782
Checksum:              343

Satellite: NOAA-18
Catalog number: 28654
Epoch time:      09203.77948653
Element set:    0985
Inclination:      098.9060 deg
RA of node:       146.7450 deg
Eccentricity:    0.0013219
Arg of perigee:   262.8948 deg
Mean anomaly:     097.0741 deg
Mean motion:   14.11270754 rev/day
Decay rate:      -1.44e-06 rev/day^2
Epoch rev:           21497
Checksum:              336

Satellite: NOAA-19
Catalog number: 33591
Epoch time:      09203.83811919
Element set:    0188
Inclination:      098.7458 deg
RA of node:       148.6739 deg
Eccentricity:    0.0014780
Arg of perigee:   138.8927 deg
Mean anomaly:     221.3398 deg
Mean motion:   14.10973161 rev/day
Decay rate:       2.89e-06 rev/day^2
Epoch rev:           02346
Checksum:              344

/EX
SB KEPS @ AMSAT  $ORB09204.M
Orbital Elements  09204.MISC

HR AMSAT ORBITAL ELEMENTS FOR MANNED AND MISCELLANEOUS SATELLITES
FROM WA5QGD FORT WORTH,TX July 23, 2009
Send Subscribe/unsubscribe to KEPS at 
http://www.amsat.org/mailman/listinfo/keps
BID: ORB09204.M
TO ALL RADIO AMATEURS BT

Satellite: HUBBLE
Catalog number: 20580
Epoch time:      09201.16345431
Element set:    0423
Inclination:      028.4701 deg
RA of node:       247.0752 deg
Eccentricity:    0.0003234
Arg of perigee:   273.0910 deg
Mean anomaly:     086.9308 deg
Mean motion:   15.00816473 rev/day
Decay rate:       2.57e-06 rev/day^2
Epoch rev:           85481
Checksum:              264

Satellite: ISS
Catalog number: 25544
Epoch time:      09203.87036815
Element set:    0267
Inclination:      051.6387 deg
RA of node:       123.6448 deg
Eccentricity:    0.0005973
Arg of perigee:   269.1546 deg
Mean anomaly:     213.8474 deg
Mean motion:   15.73959216 rev/day
Decay rate:      7.315e-05 rev/day^2
Epoch rev:           61157
Checksum:              323

Satellite: CO-58
Catalog number: 28895
Epoch time:      09203.77552737
Element set:    0352
Inclination:      098.0537 deg
RA of node:       093.3886 deg
Eccentricity:    0.0016808
Arg of perigee:   234.1186 deg
Mean anomaly:     125.8486 deg
Mean motion:   14.59782494 rev/day
Decay rate:        3.2e-07 rev/day^2
Epoch rev:           19892
Checksum:              361

